Minot International Airport
KMOT : now visible

Airfield :











YOU CAN JOIN US ON...

 
LOGIN :

Register | Disclaimer

   EN    FR    IT 

 









Legend :    VFR   Marginal VFR   IFR   Intensive IFR   Very Intensive IFR
Visi :
Ceiling :
>= 8 km
>= 3000ft
5 to 8 km
1000 to 3000 ft
1500m to 5 km
500 to 1000 ft
800 to 1500m
200 to 500 ft
< 800m
< 200 ft
Symbols :   Thunderstorms  Fog  Heavy snow  Heavy precipitations  Wind > 20 kt






- Airport Elevation : 1716 ft
- IATA code : MOT


KMOT - Minot International

CURRENT METAR :
  • 050054Z 01004KT 10SM CLR 04/01 A3021 RMK AO2 SLP254 T00440011

EXPIRED METARs :
  • 042354Z 01005KT 10SM CLR 11/03 A3020 RMK AO2 SLP243 T01110028 10133 20061 53013
  • 042254Z 02006KT 10SM CLR 13/02 A3018 RMK AO2 SLP235 T01330022

TAF KMOT
Valid from the 05 at 00:00 until the 06 at 00:00 UTC


042323Z 0500/0524 04006KT P6SM SKC
FM050600 VRB04KT P6SM VCFG SCT003
FM051600 13009KT P6SM FEW005
KZMP FIR / North America



MET'MAP, your aeronautical weather chart ! - Copyright ORBIFLY December 2007 - Disclaimer

ORBIFLY MET'MAP TEAM :

Programming & Development : Alexandra Zaïnal
Concept & original design : Baudouin d'Aumeries
Assistance for programming : Marc-Olivier Méhu
Technical & hardware support : Manuel Goepfert

Contact : metmap@orbifly.com




SOURCES & CREDITS :

   NOAA       Earth
Advisory